SCP
0 0 0 0 0 0 0 0 0 0 0 0 0 0 0 0 0 0 0 0 0 0 0 0 0 0 0 0 0 0 0 0 0 0 0 0 0 0 0 0 0 0 0 0 0 0 0 0 0 0 0 0 0 0
0 0 0 0 0 0 0 0 0 0 0 0 0 0 0 0 0 0 0 0 0 0 0 0 0 0 0 0 0 0 0 0 0 0 0 0 0 0 0 0 0 0 0 0 0 0 0 0 0 0 0 0 0 0
0 0 0 0 0 0 0 0 0 0 0 0 0 0 0 0 0 0 0 0 0 0 0 0 0 0 0 0 0 0 0 0 0 0 0 0 0 0 0 0 0 0 0 0 0 0 0 0 0 0 0 0 0 0
0 0 0 0 0 0 0 0 0 0 0 0 0 0 0 0 0 0 0 0 0 0 0 0 0 0 0 0 0 0 0 0 0 0 0 0 0 0 0 0 0 0 0 0 0 0 0 0 0 0 0 0 0 0
0 0 0 0 0 0 0 0 0 0 0 0 0 0 0 0 0 0 0 0 0 0 0 0 0 0 0 0 0 0 0 0 0 0 0 0 0 0 0 0 0 0 0 0 0 0 0 0 0 0 0 0 0 0
0 0 0 0 0 0 0 0 0 0 0 0 0 0 0 0 0 0 0 0 0 0 0 0 0 0 0 0 0 0 0 0 0 0 0 0 0 0 0 0 0 0 0 0 0 0 0 0 0 0 0 0 0 0
0 0 0 0 0 0 0 0 0 0 0 0 0 0 0 0 0 0 0 0 0 0 0 0 0 0 0 0 0 0 0 0 0 0 0 0 0 0 0 0 0 0 0 0 0 0 0 0 0 0 0 0 0 0
0 0 0 0 0 0 0 0 0 0 0 0 0 0 0 0 0 0 0 0 0 0 0 0 0 0 0 0 0 0 0 0 0 0 0 0 0 0 0 0 0 0 0 0 0 0 0 0 0 0 0 0 0 0
0 0 0 0 -0 0 0 0 0 0 0 0 0 0 0 0 0 0 0 0 0 0 0 0 0 0 0 0 0 0 0 0 0 0 0 0 0 0 0 0 0 0 0 0 0 0 0 0 0 0 0 0 0 0
0 0 0 0 0 0 0 0 0 0 0 0 0 0 0 0 0 0 0 0 0 0 0 0 0 0 0 0 0 0 0 0 0 0 0 0 0 0 0 0 0 0 0 0 0 0 0 0 0 0 0 0 0 0
0 0 0 0 0 0 0 0 0 0 0 0 0 0 0 0 0 0 0 0 0 0 0 0 0 0 0 0 0 0 0 0 0 0 0 0 0 0 0 0 0 0 0 0 0 0 0 0 0 0 0 0 0 0
0 0 0 0 0 0 0 0 0 0 0 0 0 0 0 0 0 0 0 0 0 0 0 0 0 0 0 0 0 0 0 0 0 0 0 0 0 0 0 0 0 0 0 0 0 0 0 0 0 0 0 0 0 0
0 0 0 0 0 0 0 0 0 0 0 0 0 0 0 0 0 0 0 0 0 0 0 0 0 0 0 0 0 0 0 0 0 0 0 0 0 0 0 0 0 0 0 0 0 0 0 0 0 0 0 0 0 0
0 0 0 0 -0 0 0 0 0 0 0 0 0 0 0 0 0 0 0 0 0 0 0 0 0 0 0 0 0 0 0 0 0 0 0 0 0 0 0 0 0 0 0 0 0 0 0 0 0 0 0 0 0 0
-0 0 0 0 0 0 -0 0 0 0 0 0 0 0 0 0 0 0 0 0 0 0 0 0 0 0 0 0 0 0 0 0 0 0 0 0 0 0 0 0 0 0 0 0 0 0 0 0 0 0 0 0 0 0
0 0 0 0 0 0 0 0 0 0 0 0 0 0 0 0 0 0 0 0 0 0 0 0 0 0 0 0 0 0 0 0 0 0 0 0 0 0 0 0 0 0 0 0 0 0 0 0 0 0 0 0 0 0
0 0 0 0 0 0 0 0 0 0 0 0 0 0 0 0 0 0 0 0 0 0 0 0 0 0 0 0 0 0 0 0 0 0 0 0 0 0 0 0 0 0 0 0 0 0 0 0 0 0 0 0 0 0
0 0 0 0 0 0 0 0 0 0 0 0 0 0 0 0 0 0 0 0 0 0 0 0 0 0 0 0 0 0 0 0 0 0 0 0 0 0 0 0 0 0 0 0 0 0 0 0 0 0 0 0 0 0
0 0 0 0 0 0 0 0 0 0 0 0 0 0 0 0 0 0 0 0 0 0 0 0 0 0 0 0 0 0 0 0 0 0 0 0 0 0 0 0 0 0 0 0 0 0 0 0 0 0 0 0 0 0
0 0 0 -0 0 0 0 0 0 0 0 0 0 0 0 0 0 0 0 0 0 0 0 0 0 0 0 0 0 0 0 0 0 0 0 0 0 0 0 0 0 0 0 0 0 0 0 0 0 0 0 0 0 0
0 0 0 0 0 0 0 0 0 0 0 0 0 0 0 0 0 0 0 0 0 0 0 0 0 0 0 0 0 0 0 0 0 0 0 0 0 0 0 0 0 0 0 0 0 0 0 0 0 0 0 0 0 0
0 0 0 0 0 0 0 0 0 0 0 0 0 0 0 0 0 0 0 0 0 0 0 0 0 0 0 0 0 0 0 0 0 0 0 0 0 0 0 0 0 0 0 0 0 0 -0 -0 0 0 0 0 0 0
0 0 0 0 0 0 0 0 0 0 0 0 0 0 0 0 0 0 0 0 0 0 0 0 0 0 0 0 0 0 0 0 0 0 0 0 0 0 0 0 0 0 0 0 -0 -0 0 0 0 0 0 0 0 0
-0 -0 -0 0 0 0 0 0 0 0 0 0 0 0 0 0 0 0 0 0 0 0 0 0 0 0 0 0 0 0 0 0 0 0 0 0 0 0 0 0 0 0 -0 -0 -0 -0 0 0 0 0 0 0 0 0
0 -0 -0 0 0 0 0 0 0 0 0 0 0 0 0 0 0 0 0 0 0 0 0 0 0 0 0 0 0 0 0 0 0 0 0 0 0 0 0 -0 -0 -0 0 -0 -0 -0 0 0 0 0 0 0 0 0
0 -0 -0 0 0 0 0 0 0 0 0 0 0 0 0 0 0 0 0 0 0 0 0 0 0 0 0 0 0 0 0 0 0 0 0 0 0 0 0 0 0 0 -0 0 0 0 0 0 0 0 0 0 0 0
-0 -0 -0 0 0 0 0 0 0 0 0 0 0 0 0 0 0 0 0 0 0 0 0 0 0 0 0 0 0 0 0 0 0 0 0 0 -0 -0 -0 0 -0 -0 0 0 0 0 0 0 0 0 0 0 0 0
-0 -0 -0 -0 -0 0 -0 0 0 0 0 0 0 0 0 0 0 0 0 0 0 0 0 0 -0 0 0 0 0 0 0 0 0 0 0 0 0 0 0 0 0 -0 0 0 0 0 0 0 0 0 0 0 0 0
-0 -0 0 -0 -0 -0 0 0 -0 0 0 -0 -0 -0 -0 0 0 0 0 0 0 0 0 0 0 0 0 0 0 0 0 0 0 0 0 0 0 0 0 0 0 0 0 0 0 0 0 0 0 0 0 0 0 0
-0 0 0 0 0 0 0 -0 -0 0 0 -0 -0 -0 -0 -0 0 0 0 0 0 0 0 0 0 0 0 0 0 0 0 0 0 0 0 0 0 0 0 0 0 0 0 0 0 0 0 0 0 0 0 0 0 0
-0 -0 -0 0 0 0 0 0 0 -0 0 0 0 0 0 0 0 0 0 0 0 0 0 0 0 0 0 0 0 0 0 0 0 0 0 0 0 0 0 0 0 0 0 0 0 0 0 0 0 0 0 0 0 0
-0 -0 -0 -0 0 0 0 0 0 0 0 0 0 0 0 0 0 0 0 0 0 0 0 0 0 0 0 0 0 0 0 0 0 0 0 0 0 0 0 0 0 0 0 0 0 0 0 0 0 0 0 0 0 0
0 0 0 0 0 0 0 0 0 0 0 0 0 0 0 0 0 0 0 0 0 0 0 0 0 0 0 0 0 0 0 0 0 0 0 0 0 0 0 0 0 0 0 0 0 0 0 0 0 0 0 0 0 0
Wind_Speed_500mb
50 49 51 50 49 49 48 57 54 51 49 52 56 46 49 69 45 47 58 59 62 29 40 45 50 31 22 25 11 14 8 6 8 13 9 8 10 12 6 9 7 11 10 9 2 7 21 11 14 12 3 14 44 42
46 47 54 54 56 56 54 54 56 55 50 56 51 51 52 42 50 66 59 57 49 45 18 30 70 64 63 47 41 36 20 18 22 9 10 5 7 5 12 15 11 14 19 13 17 12 4 21 17 37 58 63 63 52
53 57 54 51 53 54 55 57 58 59 57 58 61 57 55 54 48 62 63 46 38 48 50 63 61 70 68 72 65 33 27 35 29 29 15 8 14 10 12 17 26 34 44 21 24 39 44 63 70 73 70 60 56 52
54 49 54 61 59 56 57 60 60 63 64 59 61 66 66 61 61 60 64 65 60 29 12 36 52 53 56 66 75 76 62 38 40 42 22 11 11 24 18 23 22 30 12 19 28 43 52 65 66 75 71 61 53 49
57 55 54 56 55 57 60 59 63 60 58 59 61 57 55 56 54 57 62 62 54 47 6 6 22 41 50 40 57 75 76 54 31 17 12 16 30 17 24 18 26 42 37 24 30 58 48 63 65 60 47 48 46 41
57 56 54 55 56 60 58 59 63 64 61 57 57 57 57 58 52 55 39 64 63 59 16 8 29 55 54 47 49 66 79 65 53 22 15 24 44 23 11 22 45 60 54 63 55 81 70 79 67 55 53 49 40 33
57 57 56 56 60 58 60 58 58 61 62 61 59 56 55 55 57 59 18 21 37 67 22 7 7 24 40 43 53 44 53 40 37 28 20 29 28 26 11 24 58 53 56 65 73 66 57 60 37 45 43 41 34 30
54 53 55 57 57 58 58 57 57 57 58 56 56 54 52 53 58 71 78 39 32 53 20 7 5 3 21 13 15 23 23 29 23 17 18 17 16 17 16 35 54 57 67 71 63 58 53 44 35 33 31 31 29 27
44 46 48 50 50 52 54 53 51 52 53 52 50 48 49 60 57 56 61 74 69 42 13 12 12 9 24 16 15 18 21 9 15 11 15 17 13 16 24 38 48 60 42 43 39 38 31 29 30 30 26 25 26 27
46 47 50 49 45 46 47 48 47 47 46 44 41 31 21 49 58 36 29 35 51 38 30 9 23 9 28 22 18 15 15 8 9 14 13 11 24 53 43 53 54 43 28 26 20 21 25 23 23 24 27 26 26 28
33 35 36 41 46 44 42 40 41 41 38 45 27 26 22 28 49 29 18 13 12 10 25 21 39 11 26 8 10 19 4 5 7 7 12 7 8 21 46 46 36 31 28 24 23 24 21 22 23 25 26 27 29 34
37 38 40 44 41 38 40 42 39 39 47 35 22 24 33 26 15 13 14 11 10 12 13 12 21 36 22 19 8 13 8 8 11 7 5 6 8 16 20 20 21 21 19 18 19 18 18 19 22 26 29 32 36 40
39 41 43 40 43 43 42 38 43 43 42 44 22 23 16 14 14 16 19 5 9 8 26 22 10 27 16 19 7 8 13 10 10 7 9 10 6 10 15 16 15 13 11 11 14 16 20 23 26 30 34 36 42 44
47 45 43 46 46 44 47 45 43 41 39 20 14 14 15 9 10 8 10 12 16 31 49 35 14 7 11 10 6 9 5 8 7 7 13 6 13 17 15 14 11 10 11 13 16 20 24 29 32 32 36 41 45 46
38 35 35 43 48 47 44 45 45 45 28 18 14 11 13 5 5 10 18 15 18 41 56 19 12 10 4 6 7 8 5 10 12 12 7 10 22 22 19 15 12 10 11 15 21 25 28 33 37 38 35 39 41 43
11 15 18 24 40 43 38 38 43 47 20 10 4 9 3 3 2 3 15 18 36 49 30 12 7 8 8 8 10 14 11 15 9 6 13 28 25 21 17 13 10 10 14 19 24 29 31 33 36 37 34 32 32 33
8 8 9 13 17 33 37 43 39 19 8 7 2 5 9 6 0 8 15 17 40 30 8 7 12 12 6 6 8 9 12 12 8 20 31 27 22 16 11 9 10 12 15 19 21 24 26 28 30 31 30 23 23 23
9 11 12 8 5 40 31 7 9 8 7 7 1 2 5 8 11 10 12 35 25 7 12 5 13 7 10 13 8 6 6 11 20 26 22 18 15 13 9 7 8 9 10 13 15 18 20 23 22 21 21 19 16 12
20 14 3 8 7 6 7 6 6 8 5 7 8 7 5 7 11 12 14 21 15 19 19 8 6 7 7 4 3 11 25 21 20 22 17 14 13 8 5 3 2 2 5 8 11 14 16 17 18 18 16 13 12 8
23 13 9 12 11 7 9 9 8 10 4 5 8 6 7 4 10 10 14 18 17 12 5 5 6 4 4 10 13 18 27 24 28 28 19 19 14 10 8 7 6 4 5 8 10 10 11 11 13 13 12 11 9 7
18 11 7 10 6 11 12 7 11 9 9 8 9 3 5 9 6 5 7 11 4 3 3 5 9 19 26 23 22 19 21 20 19 14 12 25 21 16 14 12 8 6 4 4 6 10 14 17 18 17 15 13 11 10
9 14 11 10 9 10 13 13 12 9 6 7 4 5 7 4 7 6 2 2 1 2 4 11 22 26 22 19 20 20 17 18 18 18 20 23 25 20 14 9 4 1 2 5 8 10 12 14 14 15 15 14 13 12
14 9 7 8 9 10 6 8 7 7 5 1 4 4 4 4 1 1 2 2 3 5 11 21 23 23 24 24 24 23 22 20 22 23 24 21 18 13 8 5 3 3 5 7 8 9 10 12 14 16 16 16 15 14
13 7 12 11 15 3 5 7 7 7 6 4 4 6 4 1 5 2 2 3 4 12 20 27 28 30 29 27 27 27 26 26 24 22 18 15 11 7 4 2 3 4 4 5 5 7 9 11 12 14 15 17 18 19
6 20 13 11 14 8 9 5 5 4 4 2 2 1 1 5 2 3 4 2 12 24 28 32 31 25 28 32 30 28 25 21 17 15 12 9 6 5 4 4 4 4 3 1 3 6 9 12 14 17 19 21 22 22
15 17 10 2 9 5 3 5 5 3 2 2 1 2 3 2 3 2 4 4 6 26 28 30 31 27 27 26 25 22 18 13 10 6 4 5 7 8 9 9 8 6 6 5 6 9 12 15 17 18 18 19 23 27
10 8 11 13 6 3 7 6 3 4 5 3 3 4 4 6 1 5 6 6 5 15 21 22 22 18 20 21 17 13 10 7 5 4 5 7 9 10 10 9 8 9 8 9 12 15 17 18 19 21 22 21 24 30
8 15 4 15 7 8 6 3 4 3 3 1 1 4 5 6 4 5 7 7 10 20 24 27 28 22 18 15 12 8 6 3 2 3 3 4 4 5 5 5 6 9 11 14 18 20 22 25 27 29 33 36 36 36
8 19 10 8 5 8 6 3 1 3 2 3 3 2 3 2 3 4 5 6 15 23 25 25 24 19 17 14 10 7 5 2 0 1 2 2 2 2 3 6 10 14 19 23 24 28 30 32 33 36 40 45 49 51
12 21 7 3 4 4 4 5 3 5 4 4 6 6 5 5 8 6 1 3 10 19 20 19 17 17 15 12 9 6 5 5 6 7 8 6 9 11 15 18 22 25 30 35 36 35 36 39 40 42 50 56 57 57
15 13 5 4 1 3 8 12 8 6 4 4 6 5 7 6 11 24 12 3 10 14 18 18 17 17 14 10 8 6 7 7 5 7 10 12 14 16 20 25 30 35 41 45 48 51 52 54 56 59 64 66 62 59
14 11 4 6 5 9 8 15 6 3 3 3 5 7 6 5 6 11 27 15 3 11 14 15 13 10 12 9 4 1 1 2 4 8 14 21 27 33 39 43 47 52 56 60 62 63 63 65 69 71 70 67 62 58
8 10 7 7 5 6 15 17 10 5 6 6 8 9 9 6 7 19 24 28 12 3 12 13 13 9 9 9 11 11 4 9 17 25 33 40 47 52 57 60 61 60 59 59 59 59 60 60 61 61 59 58 56 52
Wind_Direction_500mb
247 250 253 252 248 246 245 244 246 242 243 251 228 235 241 237 233 228 232 223 213 221 232 219 221 193 171 181 175 175 140 184 171 200 200 201 218 204 221 246 215 241 228 201 185 250 268 157 127 218 264 287 301 296
259 256 248 248 250 250 248 248 244 241 251 249 243 237 234 237 240 232 238 241 239 222 244 238 242 243 242 237 214 192 205 162 180 186 207 178 202 199 218 255 199 254 224 247 215 243 255 190 248 268 285 287 286 287
254 252 260 260 252 249 247 249 248 244 242 243 240 238 242 236 233 223 236 231 225 229 251 253 245 249 243 238 233 215 225 219 211 208 178 200 235 176 230 237 255 257 255 244 260 255 259 269 271 273 277 278 282 286
257 254 252 253 258 257 250 248 249 249 245 241 241 238 236 236 232 224 226 232 234 233 240 255 259 244 249 237 233 229 229 223 227 219 217 215 225 199 237 241 235 245 245 245 255 261 270 264 264 269 271 275 276 275
257 256 257 257 256 256 258 251 249 250 249 245 243 242 240 236 238 241 236 228 234 225 289 280 264 255 259 245 234 232 229 226 217 206 207 226 239 230 240 248 245 247 248 248 252 265 262 272 274 275 272 265 261 266
257 257 258 259 258 257 253 254 249 250 248 246 245 245 246 237 233 229 227 229 229 234 240 241 253 257 255 232 229 227 225 223 222 219 222 234 238 212 233 241 249 253 254 248 252 264 272 272 273 267 263 261 258 263
258 256 255 258 257 256 256 252 249 247 246 244 244 245 243 241 232 217 205 228 220 220 216 239 225 235 233 228 223 222 220 209 213 228 225 237 236 219 239 252 258 259 258 259 263 273 269 261 252 257 254 253 257 263
257 260 261 263 262 256 252 252 248 243 240 241 242 242 242 240 239 236 228 213 207 180 194 219 209 222 203 185 197 199 202 209 218 221 233 233 242 223 242 245 256 261 267 270 271 262 256 259 249 246 241 247 258 269
258 259 261 262 258 256 250 245 245 241 237 236 239 241 242 235 230 227 233 229 217 198 195 188 183 213 178 177 182 184 193 206 205 220 228 210 223 224 232 243 247 257 257 263 262 259 251 240 239 243 251 257 267 276
259 260 261 259 258 250 247 244 242 237 233 231 229 222 225 225 226 222 207 206 198 205 195 187 179 177 178 174 184 169 196 214 207 220 171 224 238 243 250 254 259 262 264 257 241 245 240 236 238 249 260 269 277 284
261 264 266 261 252 246 246 244 237 231 226 222 204 215 233 218 187 191 194 197 179 198 178 166 185 156 193 159 182 201 206 204 226 195 202 219 252 234 235 240 246 256 258 252 248 251 254 250 252 259 267 277 285 290
258 261 262 256 249 246 245 240 235 227 225 220 204 192 182 191 191 207 178 170 189 202 174 153 178 191 175 179 161 178 199 192 230 130 215 241 236 225 223 233 245 255 255 248 247 251 255 260 267 274 283 287 287 289
260 261 262 257 248 242 239 239 228 226 228 233 212 176 199 191 193 194 180 186 176 165 174 163 156 157 153 181 177 173 205 218 115 188 227 231 141 211 222 227 230 230 237 250 259 266 271 274 277 283 286 289 291 294
259 260 257 255 249 244 235 231 226 215 209 201 195 197 191 189 216 185 179 174 196 171 170 158 125 149 158 172 167 194 146 133 208 225 226 219 198 193 194 198 209 221 241 257 270 278 284 287 289 291 294 295 295 296
250 258 260 251 246 243 234 226 219 216 225 192 187 218 202 177 145 185 185 148 166 176 150 128 103 130 142 166 185 111 152 227 215 227 222 178 174 176 180 188 201 222 255 278 287 291 294 296 296 297 296 294 292 293
240 271 259 265 237 229 225 221 213 217 228 242 171 149 83 142 162 238 196 173 167 157 141 114 123 145 185 173 168 205 181 214 222 208 173 160 164 170 177 194 223 263 285 293 299 302 304 304 304 305 306 302 295 294
291 263 299 330 229 209 212 204 192 188 170 128 104 110 126 66 222 174 163 172 165 157 155 143 162 187 103 172 209 191 212 247 161 156 155 160 165 176 190 221 254 277 295 303 310 310 311 309 309 309 309 305 294 292
338 313 321 323 300 171 176 133 120 103 83 42 262 78 91 104 129 151 150 149 162 179 158 139 117 170 185 179 232 205 129 133 135 148 156 167 177 187 206 245 279 297 315 319 327 326 324 322 321 316 311 310 308 299
346 341 134 206 208 256 105 90 98 105 109 108 100 116 111 106 102 139 155 165 139 138 128 129 160 191 217 185 164 172 168 159 167 166 173 186 194 192 192 213 227 353 5 4 357 346 340 338 337 334 331 328 328 323
277 277 252 221 213 179 89 55 81 89 102 110 109 96 95 83 116 113 137 148 135 130 128 186 216 151 130 146 150 154 164 162 156 154 176 190 193 178 161 146 133 112 55 29 18 13 12 7 4 4 360 354 353 352
245 218 217 199 161 74 86 76 66 72 109 104 109 120 106 112 105 93 85 129 142 142 197 193 158 139 132 134 136 154 169 175 179 180 192 181 173 163 156 153 143 112 78 43 24 20 18 19 17 17 23 20 16 16
162 161 134 126 86 73 76 58 93 98 80 93 70 50 45 42 31 38 110 107 103 182 158 158 159 150 151 154 157 163 169 170 161 148 151 155 159 158 154 148 135 104 329 350 357 1 7 10 9 10 13 18 19 18
128 115 82 73 91 61 53 79 72 46 90 120 82 65 35 21 60 82 230 256 241 202 172 155 164 159 160 164 161 158 151 144 140 140 146 151 157 164 173 193 229 271 339 342 348 354 2 6 5 7 3 359 358 353
113 66 40 47 38 107 94 50 72 91 96 64 151 168 179 33 8 68 253 279 240 176 167 173 172 165 161 159 155 146 142 140 140 143 148 157 167 176 187 231 284 298 302 345 356 6 9 6 3 1 357 355 354 352
96 11 19 12 26 43 46 31 20 72 103 355 93 97 8 1 161 162 185 268 182 181 181 177 174 170 159 149 145 143 142 141 144 149 161 178 201 221 240 272 294 290 278 319 5 2 352 346 343 342 341 339 340 341
68 5 39 307 345 61 342 80 38 63 112 108 111 306 347 157 102 183 237 353 188 191 184 178 166 154 154 152 147 146 149 155 164 180 220 235 238 244 253 268 276 275 257 265 305 321 326 326 329 331 335 336 337 339
59 341 14 29 23 81 65 57 85 82 68 54 297 9 55 69 329 272 5 34 82 155 159 157 151 143 155 152 150 150 149 158 181 230 253 262 272 274 272 271 258 251 256 278 298 308 313 316 319 321 324 327 330 329
76 27 58 335 14 26 128 70 51 65 271 25 71 36 107 154 217 9 30 74 113 144 152 154 153 150 154 158 155 154 153 164 230 289 296 298 297 279 265 250 248 261 275 288 297 301 305 308 310 312 314 315 318 318
36 356 350 3 20 46 48 67 184 34 22 353 100 318 286 13 45 49 49 134 145 158 165 169 166 162 160 162 162 160 160 155 279 299 339 350 346 310 282 288 287 290 292 295 298 301 302 302 305 307 312 316 317 316
3 357 4 27 58 21 354 28 19 343 322 310 301 309 324 31 26 3 345 164 170 172 167 174 177 177 180 184 186 204 235 273 301 304 304 305 308 312 312 308 305 302 298 298 299 297 293 293 294 296 303 306 309 310
346 347 343 26 150 23 345 335 329 326 293 319 322 317 342 12 64 45 38 186 184 187 187 191 193 192 193 196 213 241 284 312 332 327 322 321 320 316 308 302 299 296 293 292 293 292 291 290 291 294 299 303 305 306
342 17 13 359 334 353 359 357 346 8 10 10 15 1 358 30 70 42 16 16 232 210 209 210 206 203 209 224 245 257 327 357 351 336 324 316 311 309 306 304 302 298 294 292 291 290 289 289 290 293 296 299 301 302
327 347 345 329 336 14 354 352 18 26 39 45 32 25 33 55 76 21 7 8 3 247 211 198 196 188 173 156 136 121 73 344 327 321 316 313 310 309 307 306 305 303 300 298 296 295 293 293 293 294 295 296 298 298
Wind_Speed_850mb
50 49 51 50 49 49 48 57 54 51 49 52 56 46 49 69 45 47 58 59 62 29 40 45 50 31 22 25 11 14 8 6 8 13 9 8 10 12 6 9 7 11 10 9 2 7 21 11 14 12 3 14 44 42
46 47 54 54 56 56 54 54 56 55 50 56 51 51 52 42 50 66 59 57 49 45 18 30 70 64 63 47 41 36 20 18 22 9 10 5 7 5 12 15 11 14 19 13 17 12 4 21 17 37 58 63 63 52
53 57 54 51 53 54 55 57 58 59 57 58 61 57 55 54 48 62 63 46 38 48 50 63 61 70 68 72 65 33 27 35 29 29 15 8 14 10 12 17 26 34 44 21 24 39 44 63 70 73 70 60 56 52
54 49 54 61 59 56 57 60 60 63 64 59 61 66 66 61 61 60 64 65 60 29 12 36 52 53 56 66 75 76 62 38 40 42 22 11 11 24 18 23 22 30 12 19 28 43 52 65 66 75 71 61 53 49
57 55 54 56 55 57 60 59 63 60 58 59 61 57 55 56 54 57 62 62 54 47 6 6 22 41 50 40 57 75 76 54 31 17 12 16 30 17 24 18 26 42 37 24 30 58 48 63 65 60 47 48 46 41
57 56 54 55 56 60 58 59 63 64 61 57 57 57 57 58 52 55 39 64 63 59 16 8 29 55 54 47 49 66 79 65 53 22 15 24 44 23 11 22 45 60 54 63 55 81 70 79 67 55 53 49 40 33
57 57 56 56 60 58 60 58 58 61 62 61 59 56 55 55 57 59 18 21 37 67 22 7 7 24 40 43 53 44 53 40 37 28 20 29 28 26 11 24 58 53 56 65 73 66 57 60 37 45 43 41 34 30
54 53 55 57 57 58 58 57 57 57 58 56 56 54 52 53 58 71 78 39 32 53 20 7 5 3 21 13 15 23 23 29 23 17 18 17 16 17 16 35 54 57 67 71 63 58 53 44 35 33 31 31 29 27
44 46 48 50 50 52 54 53 51 52 53 52 50 48 49 60 57 56 61 74 69 42 13 12 12 9 24 16 15 18 21 9 15 11 15 17 13 16 24 38 48 60 42 43 39 38 31 29 30 30 26 25 26 27
46 47 50 49 45 46 47 48 47 47 46 44 41 31 21 49 58 36 29 35 51 38 30 9 23 9 28 22 18 15 15 8 9 14 13 11 24 53 43 53 54 43 28 26 20 21 25 23 23 24 27 26 26 28
33 35 36 41 46 44 42 40 41 41 38 45 27 26 22 28 49 29 18 13 12 10 25 21 39 11 26 8 10 19 4 5 7 7 12 7 8 21 46 46 36 31 28 24 23 24 21 22 23 25 26 27 29 34
37 38 40 44 41 38 40 42 39 39 47 35 22 24 33 26 15 13 14 11 10 12 13 12 21 36 22 19 8 13 8 8 11 7 5 6 8 16 20 20 21 21 19 18 19 18 18 19 22 26 29 32 36 40
39 41 43 40 43 43 42 38 43 43 42 44 22 23 16 14 14 16 19 5 9 8 26 22 10 27 16 19 7 8 13 10 10 7 9 10 6 10 15 16 15 13 11 11 14 16 20 23 26 30 34 36 42 44
47 45 43 46 46 44 47 45 43 41 39 20 14 14 15 9 10 8 10 12 16 31 49 35 14 7 11 10 6 9 5 8 7 7 13 6 13 17 15 14 11 10 11 13 16 20 24 29 32 32 36 41 45 46
38 35 35 43 48 47 44 45 45 45 28 18 14 11 13 5 5 10 18 15 18 41 56 19 12 10 4 6 7 8 5 10 12 12 7 10 22 22 19 15 12 10 11 15 21 25 28 33 37 38 35 39 41 43
11 15 18 24 40 43 38 38 43 47 20 10 4 9 3 3 2 3 15 18 36 49 30 12 7 8 8 8 10 14 11 15 9 6 13 28 25 21 17 13 10 10 14 19 24 29 31 33 36 37 34 32 32 33
8 8 9 13 17 33 37 43 39 19 8 7 2 5 9 6 0 8 15 17 40 30 8 7 12 12 6 6 8 9 12 12 8 20 31 27 22 16 11 9 10 12 15 19 21 24 26 28 30 31 30 23 23 23
9 11 12 8 5 40 31 7 9 8 7 7 1 2 5 8 11 10 12 35 25 7 12 5 13 7 10 13 8 6 6 11 20 26 22 18 15 13 9 7 8 9 10 13 15 18 20 23 22 21 21 19 16 12
20 14 3 8 7 6 7 6 6 8 5 7 8 7 5 7 11 12 14 21 15 19 19 8 6 7 7 4 3 11 25 21 20 22 17 14 13 8 5 3 2 2 5 8 11 14 16 17 18 18 16 13 12 8
23 13 9 12 11 7 9 9 8 10 4 5 8 6 7 4 10 10 14 18 17 12 5 5 6 4 4 10 13 18 27 24 28 28 19 19 14 10 8 7 6 4 5 8 10 10 11 11 13 13 12 11 9 7
18 11 7 10 6 11 12 7 11 9 9 8 9 3 5 9 6 5 7 11 4 3 3 5 9 19 26 23 22 19 21 20 19 14 12 25 21 16 14 12 8 6 4 4 6 10 14 17 18 17 15 13 11 10
9 14 11 10 9 10 13 13 12 9 6 7 4 5 7 4 7 6 2 2 1 2 4 11 22 26 22 19 20 20 17 18 18 18 20 23 25 20 14 9 4 1 2 5 8 10 12 14 14 15 15 14 13 12
14 9 7 8 9 10 6 8 7 7 5 1 4 4 4 4 1 1 2 2 3 5 11 21 23 23 24 24 24 23 22 20 22 23 24 21 18 13 8 5 3 3 5 7 8 9 10 12 14 16 16 16 15 14
13 7 12 11 15 3 5 7 7 7 6 4 4 6 4 1 5 2 2 3 4 12 20 27 28 30 29 27 27 27 26 26 24 22 18 15 11 7 4 2 3 4 4 5 5 7 9 11 12 14 15 17 18 19
6 20 13 11 14 8 9 5 5 4 4 2 2 1 1 5 2 3 4 2 12 24 28 32 31 25 28 32 30 28 25 21 17 15 12 9 6 5 4 4 4 4 3 1 3 6 9 12 14 17 19 21 22 22
15 17 10 2 9 5 3 5 5 3 2 2 1 2 3 2 3 2 4 4 6 26 28 30 31 27 27 26 25 22 18 13 10 6 4 5 7 8 9 9 8 6 6 5 6 9 12 15 17 18 18 19 23 27
10 8 11 13 6 3 7 6 3 4 5 3 3 4 4 6 1 5 6 6 5 15 21 22 22 18 20 21 17 13 10 7 5 4 5 7 9 10 10 9 8 9 8 9 12 15 17 18 19 21 22 21 24 30
8 15 4 15 7 8 6 3 4 3 3 1 1 4 5 6 4 5 7 7 10 20 24 27 28 22 18 15 12 8 6 3 2 3 3 4 4 5 5 5 6 9 11 14 18 20 22 25 27 29 33 36 36 36
8 19 10 8 5 8 6 3 1 3 2 3 3 2 3 2 3 4 5 6 15 23 25 25 24 19 17 14 10 7 5 2 0 1 2 2 2 2 3 6 10 14 19 23 24 28 30 32 33 36 40 45 49 51
12 21 7 3 4 4 4 5 3 5 4 4 6 6 5 5 8 6 1 3 10 19 20 19 17 17 15 12 9 6 5 5 6 7 8 6 9 11 15 18 22 25 30 35 36 35 36 39 40 42 50 56 57 57
15 13 5 4 1 3 8 12 8 6 4 4 6 5 7 6 11 24 12 3 10 14 18 18 17 17 14 10 8 6 7 7 5 7 10 12 14 16 20 25 30 35 41 45 48 51 52 54 56 59 64 66 62 59
14 11 4 6 5 9 8 15 6 3 3 3 5 7 6 5 6 11 27 15 3 11 14 15 13 10 12 9 4 1 1 2 4 8 14 21 27 33 39 43 47 52 56 60 62 63 63 65 69 71 70 67 62 58
8 10 7 7 5 6 15 17 10 5 6 6 8 9 9 6 7 19 24 28 12 3 12 13 13 9 9 9 11 11 4 9 17 25 33 40 47 52 57 60 61 60 59 59 59 59 60 60 61 61 59 58 56 52
Wind_Direction_850mb
247 250 253 252 248 246 245 244 246 242 243 251 228 235 241 237 233 228 232 223 213 221 232 219 221 193 171 181 175 175 140 184 171 200 200 201 218 204 221 246 215 241 228 201 185 250 268 157 127 218 264 287 301 296
259 256 248 248 250 250 248 248 244 241 251 249 243 237 234 237 240 232 238 241 239 222 244 238 242 243 242 237 214 192 205 162 180 186 207 178 202 199 218 255 199 254 224 247 215 243 255 190 248 268 285 287 286 287
254 252 260 260 252 249 247 249 248 244 242 243 240 238 242 236 233 223 236 231 225 229 251 253 245 249 243 238 233 215 225 219 211 208 178 200 235 176 230 237 255 257 255 244 260 255 259 269 271 273 277 278 282 286
257 254 252 253 258 257 250 248 249 249 245 241 241 238 236 236 232 224 226 232 234 233 240 255 259 244 249 237 233 229 229 223 227 219 217 215 225 199 237 241 235 245 245 245 255 261 270 264 264 269 271 275 276 275
257 256 257 257 256 256 258 251 249 250 249 245 243 242 240 236 238 241 236 228 234 225 289 280 264 255 259 245 234 232 229 226 217 206 207 226 239 230 240 248 245 247 248 248 252 265 262 272 274 275 272 265 261 266
257 257 258 259 258 257 253 254 249 250 248 246 245 245 246 237 233 229 227 229 229 234 240 241 253 257 255 232 229 227 225 223 222 219 222 234 238 212 233 241 249 253 254 248 252 264 272 272 273 267 263 261 258 263
258 256 255 258 257 256 256 252 249 247 246 244 244 245 243 241 232 217 205 228 220 220 216 239 225 235 233 228 223 222 220 209 213 228 225 237 236 219 239 252 258 259 258 259 263 273 269 261 252 257 254 253 257 263
257 260 261 263 262 256 252 252 248 243 240 241 242 242 242 240 239 236 228 213 207 180 194 219 209 222 203 185 197 199 202 209 218 221 233 233 242 223 242 245 256 261 267 270 271 262 256 259 249 246 241 247 258 269
258 259 261 262 258 256 250 245 245 241 237 236 239 241 242 235 230 227 233 229 217 198 195 188 183 213 178 177 182 184 193 206 205 220 228 210 223 224 232 243 247 257 257 263 262 259 251 240 239 243 251 257 267 276
259 260 261 259 258 250 247 244 242 237 233 231 229 222 225 225 226 222 207 206 198 205 195 187 179 177 178 174 184 169 196 214 207 220 171 224 238 243 250 254 259 262 264 257 241 245 240 236 238 249 260 269 277 284
261 264 266 261 252 246 246 244 237 231 226 222 204 215 233 218 187 191 194 197 179 198 178 166 185 156 193 159 182 201 206 204 226 195 202 219 252 234 235 240 246 256 258 252 248 251 254 250 252 259 267 277 285 290
258 261 262 256 249 246 245 240 235 227 225 220 204 192 182 191 191 207 178 170 189 202 174 153 178 191 175 179 161 178 199 192 230 130 215 241 236 225 223 233 245 255 255 248 247 251 255 260 267 274 283 287 287 289
260 261 262 257 248 242 239 239 228 226 228 233 212 176 199 191 193 194 180 186 176 165 174 163 156 157 153 181 177 173 205 218 115 188 227 231 141 211 222 227 230 230 237 250 259 266 271 274 277 283 286 289 291 294
259 260 257 255 249 244 235 231 226 215 209 201 195 197 191 189 216 185 179 174 196 171 170 158 125 149 158 172 167 194 146 133 208 225 226 219 198 193 194 198 209 221 241 257 270 278 284 287 289 291 294 295 295 296
250 258 260 251 246 243 234 226 219 216 225 192 187 218 202 177 145 185 185 148 166 176 150 128 103 130 142 166 185 111 152 227 215 227 222 178 174 176 180 188 201 222 255 278 287 291 294 296 296 297 296 294 292 293
240 271 259 265 237 229 225 221 213 217 228 242 171 149 83 142 162 238 196 173 167 157 141 114 123 145 185 173 168 205 181 214 222 208 173 160 164 170 177 194 223 263 285 293 299 302 304 304 304 305 306 302 295 294
291 263 299 330 229 209 212 204 192 188 170 128 104 110 126 66 222 174 163 172 165 157 155 143 162 187 103 172 209 191 212 247 161 156 155 160 165 176 190 221 254 277 295 303 310 310 311 309 309 309 309 305 294 292
338 313 321 323 300 171 176 133 120 103 83 42 262 78 91 104 129 151 150 149 162 179 158 139 117 170 185 179 232 205 129 133 135 148 156 167 177 187 206 245 279 297 315 319 327 326 324 322 321 316 311 310 308 299
346 341 134 206 208 256 105 90 98 105 109 108 100 116 111 106 102 139 155 165 139 138 128 129 160 191 217 185 164 172 168 159 167 166 173 186 194 192 192 213 227 353 5 4 357 346 340 338 337 334 331 328 328 323
277 277 252 221 213 179 89 55 81 89 102 110 109 96 95 83 116 113 137 148 135 130 128 186 216 151 130 146 150 154 164 162 156 154 176 190 193 178 161 146 133 112 55 29 18 13 12 7 4 4 360 354 353 352
245 218 217 199 161 74 86 76 66 72 109 104 109 120 106 112 105 93 85 129 142 142 197 193 158 139 132 134 136 154 169 175 179 180 192 181 173 163 156 153 143 112 78 43 24 20 18 19 17 17 23 20 16 16
162 161 134 126 86 73 76 58 93 98 80 93 70 50 45 42 31 38 110 107 103 182 158 158 159 150 151 154 157 163 169 170 161 148 151 155 159 158 154 148 135 104 329 350 357 1 7 10 9 10 13 18 19 18
128 115 82 73 91 61 53 79 72 46 90 120 82 65 35 21 60 82 230 256 241 202 172 155 164 159 160 164 161 158 151 144 140 140 146 151 157 164 173 193 229 271 339 342 348 354 2 6 5 7 3 359 358 353
113 66 40 47 38 107 94 50 72 91 96 64 151 168 179 33 8 68 253 279 240 176 167 173 172 165 161 159 155 146 142 140 140 143 148 157 167 176 187 231 284 298 302 345 356 6 9 6 3 1 357 355 354 352
96 11 19 12 26 43 46 31 20 72 103 355 93 97 8 1 161 162 185 268 182 181 181 177 174 170 159 149 145 143 142 141 144 149 161 178 201 221 240 272 294 290 278 319 5 2 352 346 343 342 341 339 340 341
68 5 39 307 345 61 342 80 38 63 112 108 111 306 347 157 102 183 237 353 188 191 184 178 166 154 154 152 147 146 149 155 164 180 220 235 238 244 253 268 276 275 257 265 305 321 326 326 329 331 335 336 337 339
59 341 14 29 23 81 65 57 85 82 68 54 297 9 55 69 329 272 5 34 82 155 159 157 151 143 155 152 150 150 149 158 181 230 253 262 272 274 272 271 258 251 256 278 298 308 313 316 319 321 324 327 330 329
76 27 58 335 14 26 128 70 51 65 271 25 71 36 107 154 217 9 30 74 113 144 152 154 153 150 154 158 155 154 153 164 230 289 296 298 297 279 265 250 248 261 275 288 297 301 305 308 310 312 314 315 318 318
36 356 350 3 20 46 48 67 184 34 22 353 100 318 286 13 45 49 49 134 145 158 165 169 166 162 160 162 162 160 160 155 279 299 339 350 346 310 282 288 287 290 292 295 298 301 302 302 305 307 312 316 317 316
3 357 4 27 58 21 354 28 19 343 322 310 301 309 324 31 26 3 345 164 170 172 167 174 177 177 180 184 186 204 235 273 301 304 304 305 308 312 312 308 305 302 298 298 299 297 293 293 294 296 303 306 309 310
346 347 343 26 150 23 345 335 329 326 293 319 322 317 342 12 64 45 38 186 184 187 187 191 193 192 193 196 213 241 284 312 332 327 322 321 320 316 308 302 299 296 293 292 293 292 291 290 291 294 299 303 305 306
342 17 13 359 334 353 359 357 346 8 10 10 15 1 358 30 70 42 16 16 232 210 209 210 206 203 209 224 245 257 327 357 351 336 324 316 311 309 306 304 302 298 294 292 291 290 289 289 290 293 296 299 301 302
327 347 345 329 336 14 354 352 18 26 39 45 32 25 33 55 76 21 7 8 3 247 211 198 196 188 173 156 136 121 73 344 327 321 316 313 310 309 307 306 305 303 300 298 296 295 293 293 293 294 295 296 298 298